Location: Starry Hill Observatory
(46.8582°N, 122.3590°W)
Time: 14:46:13
(UTC-08:00)

Daily predictions for brighter satellites

Satellite Brightness Start Highest point End
(mag) Time Altitude Azimuth Time Altitude Azimuth Time Altitude Azimuth
BREEZE-M DEB (TANK) 1.7 18:16:49 10° WNW 18:19:00 82° SSW 18:22:58 10° ESE
Cosmos 1340 2.6 18:19:19 10° N 18:23:08 85° E 18:26:55 10° SSE
SL-16 R/B 4.0 18:22:30 10° N 18:25:28 14° NE 18:28:25 10° ENE
COSMO-SKYMED 1 2.6 18:21:56 10° NNE 18:26:19 86° ESE 18:30:39 10° SSW
Cosmos 1602 3.9 18:23:55 10° S 18:27:42 53° E 18:31:33 10° NNE
BREEZE-M DEB (TANK) 2.8 18:26:13 10° WNW 18:28:51 82° NNE 18:35:03 10° ESE
Cosmos 407 Rocket 4.4 18:32:16 10° SW 18:37:25 53° WNW 18:42:40 10° NNE
Resurs 01 Rocket 2.2 18:35:33 10° SE 18:39:32 35° ENE 18:43:32 10° N
Cosmos 1741 Rocket 4.2 18:34:47 10° S 18:39:46 47° ESE 18:44:47 10° NNE
Cosmos 1833 4.3 18:38:15 10° SSW 18:43:56 84° WNW 18:49:37 10° NNE
Meteor 1-28 Rocket 3.5 18:40:26 10° N 18:44:15 71° WNW 18:48:03 10° SSW
NOAA 12 4.2 18:41:38 10° SSE 18:46:58 83° WSW 18:52:20 10° NNW
Cosmos 1140 Rocket 3.5 18:42:57 10° SSW 18:48:05 89° ESE 18:53:18 10° NNE
Cosmos 614 Rocket 3.9 18:43:41 10° S 18:48:43 70° ESE 18:53:47 10° NNE
Cosmos 1633 2.8 18:45:09 10° SSW 18:48:50 77° W 18:52:33 10° N
Genesis I 4.2 18:45:05 10° NW 18:48:54 49° WSW 18:52:42 10° SSE
Cosmos 2333 Rocket 2.7 18:43:38 10° NNW 18:49:06 43° NE 18:54:34 10° SE
Resurs 1-3 4.1 18:45:44 10° SE 18:49:46 37° ENE 18:53:48 10° N
Cosmos 1980 4.3 18:44:42 10° NNW 18:49:54 36° NE 18:54:44 11° ESE
Meteor 1-11 Rocket 3.8 18:44:11 10° S 18:50:00 77° E 18:55:58 10° NNE
FENGYUN 3A 3.7 18:49:35 10° SSE 18:54:56 65° ENE 19:00:19 10° N
Cosmos 1570 Rocket 4.1 18:50:33 10° NNW 18:55:48 80° WSW 19:01:03 10° SSE
Cosmos 1238 Rocket 3.4 18:54:36 10° NNW 18:57:26 44° W 19:00:20 10° SSW
Okean 1 Rocket 3.0 18:53:06 10° S 18:57:35 81° E 19:02:05 10° N
Cosmos 1892 Rocket 4.2 18:54:30 10° N 18:58:29 33° ENE 19:02:27 10° SE
Cosmos 1025 Rocket 3.0 18:56:15 10° N 19:00:38 65° E 19:05:00 10° SSE
USA 186 3.3 19:03:14 17° NE 19:03:14 17° NE 19:04:36 10° NNE
Cosmos 468 Rocket 4.2 18:58:32 10° NNW 19:03:39 50° ENE 19:08:46 10° SE
Cosmos 2181 Rocket 4.5 18:58:18 10° NNW 19:04:31 66° W 19:10:47 10° S
SL-19 R/B 4.4 19:03:40 10° SSE 19:09:25 75° ENE 19:15:38 10° NNW
Spot 2 Rocket 3.4 19:07:11 10° SSE 19:12:13 71° ENE 19:17:18 10° N
USA 229 DEB 3.9 19:06:51 10° NW 19:14:00 81° SW 19:21:15 10° SSE
USA 229 3.9 19:06:57 10° NW 19:14:06 81° SW 19:21:21 10° SSE
Cosmos 2074 Rocket 3.9 19:10:09 10° S 19:16:23 73° E 19:22:40 10° NNE
Meteor 1-5 Rocket 4.3 19:11:56 10° S 19:17:50 69° E 19:23:39 10° NNE
SL-08 ROCKET BODY 4.4 19:12:30 10° S 19:18:41 83° E 19:24:54 10° N
Cosmos 405 Rocket 2.8 19:16:05 10° N 19:20:08 59° ENE 19:23:50 12° SSE
Spot 1 4.1 19:17:28 16° SE 19:20:28 49° ENE 19:24:35 10° N
FengYun 1-2 T 4.3 19:16:01 10° SSE 19:21:30 80° WSW 19:27:04 10° NNW
SJ-6B 4.1 19:17:59 10° S 19:21:46 43° W 19:25:30 10° NNW
HJ-1C 3.9 19:19:23 10° S 19:22:43 60° W 19:26:04 10° NNW
Cosmos 2184 Rocket 3.9 19:16:39 10° S 19:22:56 78° E 19:29:11 10° N
Cosmos 1814 Rocket 4.0 19:19:45 10° NNW 19:24:52 56° ENE 19:28:11 21° SE
Cosmos 1544 Rocket 3.8 19:20:55 10° SSE 19:24:58 41° E 19:29:02 10° NNE
ERS-1 Rocket 4.2 19:25:09 22° ENE 19:25:19 22° ENE 19:29:10 10° N
USA 215 4.1 19:20:31 11° NE 19:26:28 43° NNW 19:32:34 10° W
NOSS 3-1 (A) 4.2 19:19:17 10° NW 19:26:32 56° NE 19:31:36 24° ESE
Meteor 2-13 Rocket 4.4 19:20:45 10° S 19:26:39 57° E 19:32:37 10° NNE
H-2A R/B 2.6 19:23:48 10° SSE 19:27:32 87° WSW 19:31:20 10° NNW
CZ-2D R/B 3.1 19:24:56 11° SSE 19:28:30 72° ENE 19:32:19 10° N
Cosmos 1850 Rocket 4.4 19:23:24 10° SSW 19:28:41 67° WNW 19:34:02 10° NNE
Aureole 2 Rocket 4.3 19:26:10 10° N 19:27:35 17° NNE 19:27:35 17° NNE
Envisat 3.6 19:27:13 29° ESE 19:28:49 36° ENE 19:33:26 10° N
ALOS 2.9 19:26:28 10° S 19:31:03 58° W 19:35:42 10° NNW
Cosmos 371 Rocket 4.1 19:26:50 10° N 19:31:12 31° ENE 19:31:49 30° ENE
ATLAS 2AS CENTAUR R/B 4.1 19:24:28 10° NW 19:31:35 31° NNE 19:35:33 21° ENE
USA 32 4.5 19:28:18 10° N 19:33:12 38° ENE 19:34:42 32° ESE
Cosmos 2237 Rocket 2.2 19:29:15 10° NNW 19:34:57 67° ENE 19:38:22 25° SE
Nadezhda 3 Rocket 3.9 19:31:25 10° N 19:37:33 63° ENE 19:43:41 10° SSE
NOSS 0 Rocket 3.9 19:31:46 10° NNW 19:37:58 89° WSW 19:43:18 14° SSE
COSMOS 2428 3.9 19:33:54 10° NW 19:39:15 43° WSW 19:44:34 10° S
Okean 2 3.7 19:35:20 10° NNW 19:39:30 70° W 19:43:40 10° S
Cosmos 2297 Rocket 3.0 19:34:48 10° SSE 19:38:27 28° SE 19:38:27 28° SE
Cosmos 1066 Rocket 4.4 19:34:32 10° N 19:40:01 47° ENE 19:42:03 33° ESE
Cosmos 1626 Rocket 4.4 19:37:50 10° N 19:41:19 33° NE 19:41:19 33° NE
Abrixas rocket 2.2 19:39:26 10° WSW 19:42:42 68° S 19:42:42 68° S
NOSS 3-1 (C) 4.0 19:37:01 10° NW 19:44:29 80° NE 19:49:43 25° SE
Helios 1B rocket 2.4 19:42:22 10° NNE 19:46:29 58° E 19:50:35 10° S
Cosmos 2219 Rocket 2.5 19:41:24 10° NNW 19:46:57 64° WSW 19:52:29 10° SSE
Meteor 1-12 Rocket 4.4 19:41:11 10° S 19:46:57 52° E 19:52:39 10° NNE
Cosmos 1441 Rocket 3.4 19:45:03 10° N 19:48:42 56° NE 19:48:42 56° NE
Helios 1A 2.9 19:46:45 23° SSE 19:49:17 86° WSW 19:53:28 10° NNW
Gbstr 26 Del rocket 3.0 19:46:29 10° W 19:50:11 59° NNW 19:50:50 50° NNE
Cosmos 2341 Rocket 4.1 19:45:18 10° SSE 19:51:26 53° E 19:57:38 10° NNE
Cosmos 2154 Rocket 3.9 19:46:08 10° S 19:52:25 71° E 19:58:44 10° NNE
SAR-Lupe-1 4.3 19:53:25 40° S 19:54:32 68° WSW 19:58:07 10° NNW
SAR-Lupe-4 4.2 19:53:33 25° S 19:55:26 56° W 19:58:59 10° NNW
Cosmos 1939 Rocket 3.9 19:56:55 33° NNE 19:56:55 33° NNE 19:59:28 10° N
Cosmos 1486 Rocket 4.1 19:52:15 10° S 19:57:24 52° ESE 19:57:37 51° E
Cosmos 2219 4.0 19:52:51 10° SW 19:58:28 53° WNW 20:04:06 10° NNE
Cosmos 1437 3.3 19:55:46 10° NNW 19:58:48 59° WNW 19:58:48 59° WNW
Cosmos 2227 Rocket 2.1 19:54:30 10° S 20:00:02 59° ESE 20:02:45 30° NE
Cosmos 1455 Rocket 2.9 19:58:00 10° S 20:02:23 83° E 20:06:46 10° N
Cosmos 841 Rocket 3.3 20:00:52 10° NNW 20:06:02 73° ENE 20:06:41 64° ESE
H-2A R/B 4.1 20:11:53 15° NNE 20:11:53 15° NNE 20:13:22 10° NNE
SL-16 R/B 2.2 20:05:15 10° NNW 20:10:53 58° ENE 20:11:12 57° ENE
Resurs 01 Rocket 3.7 20:12:21 10° SSW 20:16:04 26° W 20:19:48 10° NW
Cosmos 1763 Rocket 3.5 20:11:23 10° NNW 20:16:32 77° WSW 20:17:39 55° S
Cosmos 540 Rocket 4.3 20:15:24 10° NNW 20:19:04 38° NNE 20:19:04 38° NNE
Meteor 2-8 Rocket 4.3 20:14:52 10° N 20:20:58 88° E 20:22:58 45° S
Cosmos 962 Rocket 4.3 20:16:16 10° S 20:22:28 88° E 20:28:38 10° N
Meteor 2-19 Rocket 4.3 20:25:17 66° E 20:25:17 66° E 20:31:11 10° NNE
GEOS 3 Rocket 3.7 20:30:37 51° NNE 20:31:54 74° NW 20:37:09 10° SW
Cosmos 2333 Rocket 3.6 20:28:06 10° NW 20:33:17 35° WSW 20:37:09 16° SSW
SPOT 5 4.5 20:43:25 27° N 20:43:25 27° N 20:45:54 10° N
Cosmos 2082 4.2 20:56:54 10° SW 21:02:17 56° WNW 21:02:17 56° WNW
ERS-1 Rocket 4.1 21:05:09 41° NW 21:05:09 41° NW 21:08:42 10° NNW
SL-8 Rocket 4.3 21:06:49 62° NNW 21:06:49 62° NNW 21:12:11 10° N
Envisat 4.4 21:07:24 32° WSW 21:07:51 33° W 21:12:26 10° NNW
USA 215 4.2 21:07:52 36° NNE 21:08:39 37° N 21:14:31 10° WNW
Cosmos 2237 Rocket 4.3 21:14:19 10° NW 21:18:28 21° W 21:20:16 18° SW
Cosmos 2297 Rocket 4.0 21:18:10 10° SW 21:20:30 24° WSW 21:20:30 24° WSW
ATLAS 2AS CENTAUR R/B 3.1 21:15:48 10° NW 21:23:00 68° N 21:23:00 68° N
Cosmos 2227 Rocket 4.0 21:39:40 10° WSW 21:44:28 28° NW 21:44:55 27° NW
H-2A R/B 4.4 21:52:31 19° NNW 21:52:31 19° NNW 21:54:03 10° NNW
SL-16 R/B 4.3 21:50:06 10° NW 21:53:07 22° W 21:53:07 22° W
